Regional Weather Roundup
Issued by NWS Little Rock, AR

Home | Current Version | Previous Version | Text Only | Print | Product List | Glossary Off
Versions: 1 2 3 4 5 6 7 8 9 10 11 12 13 14 15 16 17 18 19 20 21 22 23 24 25 26 27 28 29 30 31 32 33 34 35 36 37 38 39 40 41 42 43 44 45 46 47 48 49 50

000
ASUS44 KLZK 180205
RWRLZK

WEATHER ROUNDUP FOR ARKANSAS
NATIONAL WEATHER SERVICE LITTLE ROCK AR
900 PM CDT WED SEP 17 2014

NOTE: "FAIR" INDICATES FEW OR NO CLOUDS BELOW 12,000 FEET WITH NO
SIGNIFICANT WEATHER AND/OR OBSTRUCTIONS TO VISIBILITY.

ARZ001-003-010-029-180300-
NORTHWEST ARKANSAS

CITY           SKY/WX    TMP DP  RH WIND       PRES   REMARKS
FAYETTEVILLE   CLOUDY    67  32  27 SW5       29.92R
FORT SMITH     TSTM      70  66  87 E24G36    29.90F FOG
HARRISON       MOCLDY    62  62 100 S3        29.93R FOG
BENTONVILLE    MOCLDY    66  63  88 CALM      29.92R
ROGERS         MOCLDY    65  63  93 CALM      29.93R
SILOAM SPGS    CLOUDY    66  61  82 S5        29.92S
HIGHFILL       MOCLDY    66  64  93 W7        29.91R
SPRINGDALE     CLEAR     68  66  94 S6        29.93R
$$

ARZ004-005-016-180300-
NORTH CENTRAL ARKANSAS

CITY           SKY/WX    TMP DP  RH WIND       PRES   REMARKS
BATESVILLE     CLOUDY    64  63  94 NE3       29.93R
FLIPPIN        CLOUDY    64  61  88 CALM      29.93R VSB 1/4
MTN HOME       FOG       63  63 100 E5        29.92R VSB 1/2
$$

ARZ040-041-180300-
WEST CENTRAL ARKANSAS

CITY           SKY/WX    TMP DP  RH WIND       PRES   REMARKS
MENA           CLOUDY    79  72  78 CALM      29.95R
MOUNT IDA      CLOUDY    76  71  85 VRB3      29.93R
$$

ARZ009-017-025-026-028-180300-
NORTHEAST ARKANSAS

CITY           SKY/WX    TMP DP  RH WIND       PRES   REMARKS
CORNING          N/A     63  63 100 E6        29.96R FOG
JONESBORO      MOCLDY    62  62 100 NE5       29.94R
NEWPORT        MOCLDY    64  63  97 NE6       29.94R
WALNUT RIDGE   PTCLDY    61  59  94 NE5       29.95R
BLYTHEVILLE    CLOUDY    65  63  93 E5        29.96R
$$

ARZ022-023-033-042-044-180300-
CENTRAL ARKANSAS

CITY           SKY/WX    TMP DP  RH WIND       PRES   REMARKS
LITTLE ROCK    CLOUDY    76  68  76 SE5       29.89R
N LITTLE ROCK  MOCLDY    76  71  82 S5        29.89R
JACKSONVILLE   CLOUDY    74  69  85 E2        29.89R
SEARCY         CLOUDY    67  66  96 N3        29.92R
HOT SPRINGS    MOCLDY    78  70  76 CALM      29.93R
RUSSELLVILLE   CLOUDY    72  69  90 CALM      29.89S
CLINTON        FAIR      66  66 100 CALM      29.92S FOG
$$

ARZ036-180300-
EAST ARKANSAS

CITY           SKY/WX    TMP DP  RH WIND       PRES   REMARKS
WEST MEMPHIS   CLOUDY    68  65  90 NE6       29.92R
$$

ARZ050-053-066-070-073-180300-
SOUTHWEST ARKANSAS

CITY           SKY/WX    TMP DP  RH WIND       PRES   REMARKS
ARKADELPHIA    FAIR      74  73  96 SW5       29.90F
CAMDEN         MOCLDY    73  70  88 CALM      29.91R
TEXARKANA      MOCLDY    79  74  84 CALM      29.92R
EL DORADO      MOCLDY    75  72  90 CALM      29.92R
DE QUEEN       CLOUDY    75  74  96 CALM      29.90R FOG
$$

ARZ056-057-069-180300-
SOUTHEAST ARKANSAS

CITY           SKY/WX    TMP DP  RH WIND       PRES   REMARKS
PINE BLUFF     PTCLDY    75  69  81 S3        29.89F
STUTTGART      CLOUDY    73  66  78 SE7       29.90S
MONTICELLO     PTCLDY    75  70  84 S3        29.90F

$$




USA.gov is the U.S. government's official web portal to all federal, state and local government web resources and services.